sat.trackr.live / text

‹ back to catalog

YAM-14

NORAD 69008 · 2026-100AE

PAYLOAD ACTIVE UNKNOWN

§ Identity

Operator
Country
US
Launch date
2026-05-03
Launch site
AFWTR
Launch vehicle
Mass (kg)
RCS (m²)

External: N2YO · Heavens-Above · Gunter

§ Orbital elements

Epoch: 2026-05-25T03:23:58.559136Z

Period
96.58 min
Inclination
97.7371°
Eccentricity
0.0002995
Mean motion
14.91028420 rev/d
Perigee alt
592.6 km
Apogee alt
596.8 km
Semi-major
6,972.9 km
B*
1.4766e-4
RAAN
43.0050°
Arg perigee
208.0826°
Mean anomaly
152.0231°
Rev number
325

§ Raw data

YAM-141 69008U 26100AE  26145.14164999  .00001406  00000+0  14766-3 0  99902 69008  97.7371  43.0050 0002995 208.0826 152.0231 14.91028420  3257

JSON: /api/v1/satellites/69008 · /tle

For live sub-satellite position, see the globe view (requires WebGL).

§ Visibility from observer

Set your observer location to see the next 7 days of passes ≥ 10°. The values pass through the URL so the page stays shareable.

No JS? Fill the form by hand. The geolocation button needs JavaScript.